EW9837 Weather Reports


time (UTC)temp
F
wind
direction
speed
knots
gust
knots
rain 1hr
in
rain 24hr
in
rain mn
in
humidity
%
barometer
mb
20260506033035 61 140 1.7 3.5 0.00 0.00 0.00 69 1015.9
20260506031535 63 122 1.7 3.5 0.00 0.00 0.00 66 1015.7
20260506030108 65 128 1.7 3.5 0.00 0.00 0.00 62 1015.5
20260506024651 67 148 1.7 5.2 0.00 0.00 0.00 59 1015.4
20260506023034 69 39 4.3 9.6 0.00 0.00 0.00 56 1015.1
20260506021537 71 44 5.2 10.4 0.00 0.00 0.00 53 1015.0
20260506020036 73 35 4.3 7.8 0.00 0.00 0.00 48 1014.9
20260506014536 74 12 7.0 13.0 0.00 0.00 0.00 47 1014.7
20260506013037 75 360 5.2 11.3 0.00 0.00 0.00 46 1014.7
20260506011535 75 273 1.7 5.2 0.00 0.00 0.00 45 1014.6
20260506010142 76 277 2.6 6.1 0.00 0.00 0.00 46 1014.6
20260506000036 76 263 3.5 8.7 0.00 0.00 0.00 51 1014.7
20260505234535 75 33 2.6 7.0 0.00 0.00 0.00 53 1014.9
20260505233153 74 71 5.2 12.2 0.00 0.00 0.00 53 1014.9
20260505231536 74 85 5.2 10.4 0.00 0.00 0.00 53 1014.9
20260505230037 74 83 6.1 11.3 0.00 0.00 0.00 53 1015.0
20260505224537 74 70 6.1 10.4 0.00 0.00 0.00 53 1015.1
20260505223143 74 66 7.0 10.4 0.00 0.00 0.00 53 1015.2
20260505221537 74 78 7.0 11.3 0.00 0.00 0.00 51 1015.3
20260505220035 76 60 5.2 10.4 0.00 0.00 0.00 48 1015.4
20260505214609 76 32 4.3 13.0 0.00 0.00 0.00 49 1015.5
20260505213034 75 14 4.3 12.2 0.00 0.00 0.00 50 1015.6
20260505211537 74 56 5.2 11.3 0.00 0.00 0.00 52 1015.6
20260505210035 73 56 6.1 10.4 0.00 0.00 0.00 52 1015.7
20260505204607 74 70 5.2 13.0 0.00 0.00 0.00 50 1015.9
20260505201534 74 34 5.2 10.4 0.00 0.00 0.00 50 1016.0
20260505200108 74 45 3.5 11.3 0.00 0.00 0.00 49 1016.0
20260505194535 73 33 4.3 9.6 0.00 0.00 0.00 50 1016.1
20260505193034 72 58 3.5 7.0 0.00 0.00 0.00 52 1016.2
20260505191536 72 70 4.3 9.6 0.00 0.00 0.00 51 1016.3
20260505190031 72 14 3.5 7.8 0.00 0.00 0.00 51 1016.4
20260505184534 72 36 3.5 7.0 0.00 0.00 0.00 52 1016.4
20260505183106 72 44 3.5 8.7 0.00 0.00 0.00 52 1016.4
20260505181536 71 46 3.5 7.0 0.00 0.00 0.00 52 1016.4
20260505180035 70 17 2.6 6.1 0.00 0.00 0.00 53 1016.4
20260505174535 70 99 2.6 7.0 0.00 0.00 0.00 54 1016.4
20260505173110 69 63 2.6 6.1 0.00 0.00 0.00 55 1016.3
20260505171534 68 52 3.5 6.1 0.00 0.00 0.00 56 1016.3
20260505170047 68 111 1.7 5.2 0.00 0.00 0.00 55 1016.3
20260505163036 66 66 1.7 5.2 0.00 0.00 0.00 60 1016.2
20260505161609 65 76 1.7 5.2 0.00 0.00 0.00 62 1016.2
20260505153107 61 84 1.7 3.5 0.00 0.00 0.00 71 1016.2
20260505151534 60 74 2.6 5.2 0.00 0.00 0.00 73 1016.2
20260505150107 58 81 2.6 5.2 0.00 0.00 0.00 79 1016.1
20260505124608 45 169 1.7 4.3 0.00 0.00 0.00 95 1015.0
20260505123036 44 169 2.6 4.3 0.00 0.00 0.00 95 1015.0
20260505121608 45 155 2.6 3.5 0.00 0.00 0.00 95 1015.0
20260505120035 45 155 2.6 3.5 0.00 0.00 0.00 94 1014.9
20260505113035 45 165 1.7 3.5 0.00 0.00 0.00 94 1014.9
20260505111607 46 175 2.6 3.5 0.00 0.00 0.00 94 1014.8
20260505101608 47 164 2.6 3.5 0.00 0.00 0.00 91 1014.5
20260505100047 47 187 1.7 3.5 0.00 0.00 0.00 90 1014.5
20260505094534 48 200 0.9 4.3 0.00 0.00 0.00 89 1014.4
20260505093108 49 199 1.7 4.3 0.00 0.00 0.00 87 1014.4
20260505091536 50 156 1.7 4.3 0.00 0.00 0.00 84 1014.3
20260505090036 52 146 1.7 3.5 0.00 0.00 0.00 83 1014.3
20260505084534 52 158 2.6 5.2 0.00 0.00 0.00 83 1014.2
20260505083033 52 92 1.7 5.2 0.00 0.00 0.00 83 1014.2
20260505081535 54 140 0.0 2.6 0.00 0.00 0.00 81 1014.2
20260505080037 56 106 1.7 4.3 0.00 0.00 0.00 80 1014.3
20260505074607 56 115 1.7 5.2 0.00 0.00 0.00 79 1014.2
20260505073037 58 149 0.9 5.2 0.00 0.00 0.00 77 1014.2
20260505071537 57 127 2.6 7.0 0.00 0.00 0.00 79 1014.1
20260505070107 58 92 1.7 4.3 0.00 0.00 0.00 77 1014.0
20260505064534 58 132 0.9 7.0 0.00 0.00 0.00 76 1014.0
20260505061643 60 102 1.7 4.3 0.00 0.00 0.00 71 1014.0
20260505053037 62 208 2.6 5.2 0.00 0.00 0.00 66 1013.9
20260505051538 62 276 1.7 6.1 0.00 0.00 0.00 64 1013.9
20260505041536 63 197 2.6 6.1 0.00 0.00 0.00 57 1013.5
20260505040049 64 211 1.7 5.2 0.00 0.00 0.00 53 1013.3